COSMOS 2251 DEB, 40810

Orbit data source: Space-Track

COSMOS 2251 DEB, 40810 is space debris in LEO originally from a launch on Wed, 16 Jun 1993 UTC launched from the Plesetsk Missile And Space Complex (PKMTR). The debris from Iridium 33, an American commercial communications satellite, has been tracked extensively since its accidental collision with the defunct Russian satellite Cosmos 2251 in 2009. This event, occurring at high speed in low Earth orbit (LEO), generated thousands of pieces of space debris, significantly increasing the risk of further collisions. The Iridium 33 debris cloud has impacted space traffic management and orbital debris mitigation strategies, making it a subject of ongoing study in space situational awareness.

Loading next visibility...
Identifier
40810, 1993-036BWP
Orbit
LEO
Country
Flag of CISCIS
Related business
Manufacturer
Unknown
Mission
Spacecraft
Bus & Motor
Unknown
Mass
Unknown
Launch date (UTC)
1993-06-16 (33 years ago)
Launch vehicle
Unknown
Launch site
Plesetsk Missile And Space Complex (PKMTR)
Object type
Payload
Rocket body
Debris
Shape & HBR
Unknown shape, 0.1 m
Radar Cross Section
Small (<0.1 m²)

Expand to show TLE details & history
Last TLE update: 1 day ago

TLE from 1 day ago
0 COSMOS 2251 DEB
1 40810U 93036BWP 26119.40342417  .00002181  00000-0  46278-3 0  9990
2 40810  74.0342 172.3592 0019745 283.5863  76.3103 14.59658189636916
Epoch: 2026-04-29T09:40Z
TLE epoch observation values (Epoch: 2026-04-29T09:40:55.848Z)
Latitude
-0.00002°
Longitude
169.76161°
Altitude
693.638 km
Speed
7.511 km/s
True Right ascension
11h 29m 26s
True Declination
0° 00' 00"
Sunlit
Object was in full shadow at epoch
Visualization orbit readout
Latitude
Unknown
Longitude
Unknown
Altitude
Unknown
Speed
Unknown
Apparent Right ascension
Unknown
Apparent Declination
Unknown
Sunlit
N/A
Visualization observer readout
Local Sidereal Time
18:35:57
Azimuth
Unknown
Elevation
Unknown
Doppler factor
Unknown
Orbital elements
Apogee altitude
705.836 km
Perigee altitude
677.916 km
Semi-major axis
7,070.013 km
Eccentricity
0.00197
Inclination
74.0342°
RAAN
172.3592°
Arg. of periapsis
283.5863°
True anomaly
76.53026°
Mean anomaly
76.3103°
Eccentric anomaly
76.42027°
Mean motion
3.65101 °/min
Orbital period
98.6 mins
BSTAR
0.00046278
Loading maneuver chart data...
Computing Atmospheric mass density...

Documentation

Showing up to 5 results
|